GW6200 Weather Reports


Display with metric or nautical units.
time (UTC)temp
F
wind
direction
speed
MPH
gust
MPH
rain 1hr
in
rain 24hr
in
rain mn
in
humidity
%
barometer
mb
20260506042034 39 15 0.0 2.0 0.00 0.00 0.00 88 1016.2
20260506041031 38 10 0.0 3.0 0.00 0.00 0.00 88 1016.3
20260506040035 38 9 0.0 1.0 0.00 0.00 0.00 88 1016.3
20260506035030 38 9 0.0 2.0 0.00 0.00 0.00 88 1016.4
20260506033031 37 9 0.0 2.0 0.00 0.00 0.00 88 1016.4
20260506032032 37 9 0.0 0.0 0.00 0.00 0.00 87 1016.4
20260506031035 37 9 0.0 1.0 0.00 0.00 0.00 87 1016.5
20260506030036 37 9 0.0 1.0 0.00 0.00 0.00 86 1016.5
20260506025038 37 9 0.0 1.0 0.00 0.00 0.00 86 1016.6
20260506023030 38 9 0.0 0.0 0.00 0.00 0.00 85 1016.6
20260506022029 38 9 0.0 1.0 0.00 0.00 0.00 85 1016.7
20260506020030 38 9 0.0 2.0 0.00 0.00 0.00 85 1016.6
20260506015035 38 51 0.0 2.0 0.00 0.00 0.00 86 1016.6
20260506012029 37 26 0.0 2.0 0.00 0.00 0.00 85 1016.7
20260506011029 38 82 0.0 1.0 0.00 0.00 0.00 84 1016.8
20260506010032 38 82 0.0 1.0 0.00 0.00 0.00 83 1016.7
20260506005032 38 82 0.0 1.0 0.00 0.00 0.00 82 1016.7
20260506004038 39 82 0.0 1.0 0.00 0.00 0.00 81 1016.7
20260506003026 39 82 0.0 2.0 0.00 0.00 0.00 81 1016.7
20260506002028 39 82 0.0 1.0 0.00 0.00 0.00 80 1016.8
20260506001032 40 82 0.0 1.0 0.00 0.00 0.00 79 1016.8
20260505235034 41 82 0.0 1.0 0.00 0.00 0.00 78 1016.8
20260505234028 41 82 0.0 2.0 0.00 0.00 0.00 78 1016.9
20260505231035 43 82 0.0 3.0 0.00 0.00 0.00 76 1016.9
20260505230026 43 107 1.0 3.0 0.00 0.00 0.00 76 1016.9
20260505225030 43 145 1.0 3.0 0.00 0.00 0.00 77 1017.0
20260505223020 43 111 1.0 4.0 0.00 0.00 0.00 77 1016.9
20260505222024 43 57 1.0 4.0 0.00 0.00 0.00 77 1017.0
20260505221027 43 86 1.0 7.0 0.00 0.00 0.00 77 1017.0
20260505220023 43 124 2.0 7.0 0.00 0.00 0.00 77 1016.9
20260505215024 43 73 1.0 2.0 0.00 0.00 0.00 78 1016.9
20260505214012 43 86 1.0 4.0 0.00 0.00 0.00 78 1016.9
20260505213011 44 84 1.0 3.0 0.00 0.00 0.00 77 1016.9
20260505212012 44 76 1.0 3.0 0.00 0.00 0.00 76 1016.8
20260505211011 44 63 1.0 3.0 0.00 0.00 0.00 75 1016.8
20260505210013 45 68 1.0 4.0 0.00 0.00 0.00 74 1016.8
20260505205012 45 107 1.0 4.0 0.00 0.00 0.00 73 1016.8
20260505204015 45 88 1.0 3.0 0.00 0.00 0.00 73 1016.7
20260505202013 46 106 1.0 3.0 0.00 0.00 0.00 72 1016.6
20260505201011 47 83 1.0 6.0 0.00 0.00 0.00 71 1016.6
20260505200012 47 31 2.0 4.0 0.00 0.00 0.00 71 1016.6
20260505195024 47 63 2.0 4.0 0.00 0.00 0.00 72 1016.5
20260505194026 48 96 2.0 5.0 0.00 0.00 0.00 72 1016.3
20260505192005 48 87 1.0 3.0 0.00 0.00 0.00 73 1016.1
20260505191006 49 71 1.0 4.0 0.00 0.00 0.00 72 1016.1
20260505190007 49 172 1.0 4.0 0.00 0.00 0.00 72 1015.9
20260505185006 49 78 1.0 5.0 0.00 0.00 0.00 71 1015.9
20260505184007 49 325 1.0 4.0 0.00 0.00 0.00 70 1015.9
20260505182006 50 108 2.0 5.0 0.00 0.00 0.00 70 1015.8
20260505181005 50 5 1.0 6.0 0.00 0.00 0.00 71 1015.8
20260505180002 50 126 2.0 6.0 0.00 0.00 0.00 70 1015.7
20260505175003 50 70 2.0 9.0 0.00 0.00 0.00 68 1015.7
20260505174004 50 132 2.0 9.0 0.00 0.00 0.00 69 1015.8
20260505173004 51 97 2.0 8.0 0.00 0.00 0.00 69 1015.7
20260505172003 51 82 2.0 6.0 0.00 0.00 0.00 71 1015.7
20260505171004 51 189 2.0 6.0 0.00 0.00 0.00 68 1015.7
20260505170006 51 74 2.0 8.0 0.00 0.00 0.00 69 1015.7
20260505165004 51 81 3.0 8.0 0.00 0.00 0.00 69 1015.6
20260505164003 52 173 2.0 8.0 0.00 0.00 0.00 69 1015.4
20260505162002 52 143 2.0 7.0 0.00 0.00 0.00 68 1015.3
20260505161002 53 93 3.0 10.0 0.00 0.00 0.00 68 1015.3
20260505153003 52 133 3.0 10.0 0.00 0.00 0.00 72 1015.2
20260505151002 52 217 2.0 8.0 0.00 0.00 0.00 73 1015.1
20260505123003 56 272 1.0 3.0 0.00 0.00 0.00 64 1014.3
20260505122005 58 264 1.0 3.0 0.00 0.00 0.00 60 1014.3
20260505121005 59 236 2.0 6.0 0.00 0.00 0.00 59 1014.3
20260505120006 62 119 2.0 8.0 0.00 0.00 0.00 58 1014.3
20260505115002 57 156 1.0 3.0 0.00 0.00 0.00 65 1014.3
20260505113003 56 355 2.0 6.0 0.00 0.00 0.00 64 1014.3
20260505112003 58 140 1.0 5.0 0.00 0.00 0.00 64 1014.3
20260505111002 59 347 1.0 3.0 0.00 0.00 0.00 62 1014.3
20260505102016 57 51 1.0 2.0 0.00 0.00 0.00 66 1014.5
20260505101005 55 270 1.0 4.0 0.00 0.00 0.00 66 1014.5
20260505100006 54 338 1.0 4.0 0.00 0.00 0.00 69 1014.5
20260505095003 54 74 1.0 3.0 0.00 0.00 0.00 69 1014.6
20260505094004 54 74 1.0 4.0 0.00 0.00 0.00 70 1014.5
20260505093004 53 121 1.0 4.0 0.00 0.00 0.00 71 1014.6
20260505092004 53 53 3.0 9.0 0.00 0.00 0.00 71 1014.6
20260505091004 53 355 4.0 12.0 0.00 0.00 0.00 67 1014.5
20260505090004 54 285 4.0 8.0 0.00 0.00 0.00 68 1014.5
20260505085002 53 317 4.0 9.0 0.00 0.00 0.00 71 1014.5
20260505084003 54 275 4.0 11.0 0.00 0.00 0.00 70 1014.5
20260505083004 53 265 3.0 9.0 0.00 0.00 0.00 71 1014.6
20260505082002 53 292 3.0 9.0 0.00 0.00 0.00 73 1014.7
20260505081002 52 249 3.0 9.0 0.00 0.00 0.00 75 1014.6
20260505080002 52 293 3.0 8.0 0.00 0.00 0.00 76 1014.6
20260505074001 51 294 3.0 8.0 0.00 0.00 0.00 79 1014.7
20260505073023 50 286 2.0 8.0 0.00 0.00 0.00 81 1014.5
20260505072002 50 299 3.0 9.0 0.00 0.00 0.00 81 1014.5
20260505071001 50 305 3.0 9.0 0.00 0.00 0.00 82 1014.5
20260505070002 49 309 3.0 8.0 0.00 0.00 0.00 84 1014.5
20260505064003 48 314 3.0 6.0 0.00 0.00 0.00 85 1014.5
20260505062003 47 275 1.0 4.0 0.00 0.00 0.00 90 1014.4
20260505061002 47 274 1.0 4.0 0.00 0.00 0.00 91 1014.5
20260505055002 46 307 1.0 6.0 0.00 0.00 0.00 91 1014.3
20260505053003 45 327 0.0 3.0 0.00 0.00 0.00 93 1014.3
20260505052002 44 319 0.0 1.0 0.00 0.00 0.00 93 1014.3
20260505051003 43 319 0.0 0.0 0.00 0.00 0.00 92 1014.2